Vertical_Velocity
2 2 -5 -1 -3 -1 -0 -1 1 1 1 0 -1 -1 -1 -1 -1 -2 -0 -0 -1 -1 0 -0 -0 -0 -2 -1 -1 -0 -0 -1 1 -1 -1 -0 -1 1 -2 -3 -2 1 -1
4 -1 -4 -1 -3 0 -1 -0 -0 0 -1 -1 -1 -1 -2 -2 -3 -0 0 -1 -1 1 1 1 0 -1 1 1 -0 1 -1 -1 -0 -0 -1 -1 0 -1 -1 -3 2 -2 -1
10 -2 -4 1 -3 0 -0 -1 -0 -1 -2 -1 0 1 -3 -1 -2 -1 -0 -1 -0 0 -1 0 -0 1 -0 -0 0 1 1 -1 -1 -0 2 -1 -2 -1 -1 -0 -1 -2 0
-0 0 2 -0 -0 0 -0 -1 -0 -1 0 -0 -1 -1 -2 -1 -2 -0 -1 -1 -0 -0 -1 -1 -1 -0 1 0 -1 0 1 1 2 1 2 3 -0 -1 -0 -0 1 0 0
-0 0 -2 -3 1 0 -0 -0 1 -1 0 -1 -1 -1 -2 -2 2 -0 -1 -1 -0 -0 1 1 0 -1 -2 -1 -1 -1 -0 -0 -0 -0 2 2 1 -0 -2 -0 -0 0 0
-1 -1 -2 -1 -1 -1 0 1 -0 -0 -1 -0 -1 -0 -1 -2 -1 -2 -1 -1 0 -0 -1 -1 -0 1 -0 0 -1 -1 -1 -0 1 0 0 -0 -1 1 -2 0 -3 1 1
-3 -1 -1 -1 -0 0 0 1 -1 -0 -0 -1 -1 -2 -0 -1 -3 1 1 1 1 0 -0 -0 -1 0 1 1 -0 0 -0 1 1 0 -1 -0 -0 -1 -0 -1 -2 -1 -2
1 0 -1 -0 -1 0 0 -0 -1 -0 0 -0 -1 -1 -1 -1 -2 -1 -1 -0 -0 0 -1 -1 1 1 0 1 1 -0 0 -1 1 -2 -4 -2 -1 0 -0 -0 -1 -1 -1
-0 -1 -1 1 -0 -0 -0 -1 -1 0 -0 -1 0 -1 -1 -1 -2 -2 -1 -1 -1 -1 -0 0 -1 0 -1 -0 -1 -2 -1 0 0 1 -3 -0 -0 1 -1 0 0 -0 -1
0 -1 -0 2 -1 -0 -0 -1 -0 -1 -0 -1 -1 -3 -1 -3 -2 -1 -1 -0 -1 -2 -1 -0 1 -1 0 -1 -0 -0 -2 0 -1 -0 2 0 -3 -4 1 0 2 0 -0
-1 -1 -0 1 -2 1 -1 -1 -0 -1 0 -2 -2 -3 -1 2 2 -0 -0 1 -0 0 1 -0 -0 -1 1 -1 -1 -2 -1 -0 -1 3 -0 0 -1 -1 2 -0 1 1 -0
-1 -1 -1 0 -1 1 -1 -0 -1 -0 -1 -2 -3 -3 32 -2 -2 -2 -1 -1 -1 -0 -0 -0 -1 1 -2 3 -2 -3 1 -2 -1 -2 0 1 -0 -4 -4 -3 -1 1 -1
-1 -1 -1 -1 -2 1 -1 -0 0 -0 -1 -2 -1 -3 -8 -3 -1 1 1 1 -2 -1 -1 -0 1 1 -2 -1 -0 -0 -2 -1 -2 0 0 1 1 -2 -2 -1 -1 -0 -0
-1 -1 -0 -1 -2 0 0 -0 0 0 -1 -1 -2 -2 -1 -2 -0 2 -3 -1 -2 0 5 -0 -1 -1 -3 -2 0 -1 -0 0 -1 0 -1 -2 -2 -1 -1 -2 -1 -1 -3
-1 -1 -1 -1 -2 -1 -1 -0 0 0 -1 -1 -1 -1 -1 -0 1 -1 -3 -1 0 0 6 -0 -2 0 0 -1 1 1 0 0 -1 -0 1 -0 -1 -1 -0 0 -0 -2 -1
0 0 -0 -1 -1 -1 -1 -1 -0 -1 1 -1 -1 -0 -1 -1 -0 0 -0 -0 0 0 -1 -2 -1 -3 -5 -3 -1 -1 -0 -1 -1 -1 0 1 -0 -1 -3 -2 -3 -2 -1
-2 -1 -0 -1 -1 -0 -1 -0 -1 -1 -1 0 -1 0 -2 -1 -2 -1 -2 -1 -1 -3 -3 -3 -2 -2 -7 0 -0 -1 -1 0 -1 -1 -1 -1 -0 -1 -0 -2 -2 -1 -1
-0 -1 -0 -1 -1 -1 -2 -1 -0 -0 -1 -1 -1 -1 -1 -0 -0 -2 -0 -1 -1 -0 -1 -3 -0 0 0 1 -1 -0 -0 -1 -1 -0 -0 -1 -2 -1 2 0 0 1 1
-2 -0 -2 0 -1 -0 -1 -1 -1 -1 -1 -1 -2 -1 0 -0 -0 0 -1 -1 -1 -1 -1 -2 -1 1 1 -1 -1 -1 -2 -1 1 -1 -3 -2 -1 -3 -0 -3 -2 0 0
-2 -1 -1 -2 -1 -0 -0 0 -0 -1 -0 -1 -1 -2 1 0 -0 -1 -0 0 -2 1 1 -1 -1 -2 -2 -3 -2 -1 -0 -0 -1 -1 -1 -0 -2 1 0 -1 2 -0 -1
-2 -1 1 -0 0 1 -1 -2 -1 -2 -1 -0 0 -1 -1 -1 -1 1 -0 2 -1 -0 0 -2 -1 -1 -2 -2 -1 0 -0 0 -1 0 -0 1 -1 -1 0 -1 1 -1 -0
-2 -3 -1 -0 -2 -0 -1 -2 -0 -0 -2 -0 -1 -2 -2 -1 -2 -1 1 -2 -2 -1 -0 -1 -0 -1 -1 -0 -1 -1 -0 -0 1 0 -0 0 -2 0 -1 -3 -0 1 1
0 -1 -2 -1 -2 -2 0 -0 -0 -0 -1 -2 -1 -1 -1 -1 1 -1 0 -1 -2 -2 -0 -2 -1 -2 0 -0 0 -2 -3 0 -1 0 1 1 3 -0 1 2 -3 -4 2
-3 -3 -3 -2 -1 -2 0 0 -2 -3 -1 0 0 0 1 -1 1 -0 1 1 -0 -1 -0 -0 -0 -2 -0 0 -0 -1 -1 -1 0 0 -2 0 1 -1 1 0 0 2 2
-2 -2 -3 -4 -4 -3 -1 -1 -1 -0 -1 0 -1 -3 -2 -1 -2 -3 -1 -1 0 -2 -0 -1 -1 -2 -1 -1 -0 -1 -1 -1 1 1 -1 -2 -1 -2 -1 0 2 3 3
-2 -2 -3 -1 -1 -2 -4 -2 -1 -3 -2 -1 -2 -2 -1 -1 -1 -2 -1 -0 -0 0 -3 -1 0 -2 -1 -1 -0 -0 -1 -0 -1 -2 -2 -2 -1 -1 0 -3 -3 -1 -2
Height
5885 5884 5884 5886 5885 5887 5889 5891 5891 5891 5891 5892 5893 5893 5894 5895 5895 5894 5894 5894 5894 5895 5896 5896 5896 5897 5897 5897 5897 5896 5897 5897 5897 5896 5896 5897 5897 5899 5901 5901 5903 5905 5907
5884 5884 5887 5887 5887 5889 5891 5893 5892 5892 5892 5893 5894 5894 5895 5896 5895 5895 5896 5896 5897 5897 5897 5897 5899 5899 5899 5899 5899 5898 5898 5898 5898 5897 5897 5897 5898 5900 5902 5903 5904 5906 5908
5887 5887 5891 5888 5890 5892 5894 5894 5893 5893 5894 5895 5896 5896 5897 5897 5897 5897 5897 5898 5898 5900 5899 5900 5901 5901 5900 5900 5900 5900 5899 5899 5898 5898 5898 5898 5899 5902 5903 5905 5905 5907 5909
5890 5890 5890 5889 5893 5895 5895 5895 5895 5895 5897 5897 5898 5898 5898 5898 5898 5897 5898 5899 5899 5901 5901 5901 5901 5902 5902 5902 5901 5900 5900 5899 5899 5900 5899 5900 5901 5903 5905 5906 5907 5908 5910
5892 5892 5892 5893 5896 5897 5896 5896 5897 5898 5899 5900 5900 5900 5900 5899 5899 5899 5900 5901 5901 5902 5902 5902 5903 5903 5903 5902 5901 5900 5900 5899 5900 5901 5901 5902 5904 5905 5906 5908 5909 5910 5911
5893 5894 5895 5896 5897 5898 5897 5899 5900 5901 5902 5902 5902 5901 5901 5901 5901 5902 5902 5903 5903 5904 5904 5905 5906 5905 5904 5903 5902 5900 5899 5899 5901 5902 5904 5905 5906 5907 5908 5909 5910 5911 5912
5894 5895 5896 5897 5898 5900 5900 5901 5903 5903 5904 5904 5903 5903 5903 5904 5904 5904 5905 5906 5907 5907 5907 5907 5907 5906 5906 5905 5902 5900 5897 5895 5900 5904 5905 5907 5908 5909 5910 5910 5911 5912 5912
5897 5897 5897 5899 5900 5902 5902 5903 5905 5905 5906 5906 5905 5906 5906 5907 5907 5907 5907 5908 5909 5909 5910 5910 5909 5908 5907 5906 5904 5901 5899 5898 5903 5906 5908 5909 5910 5911 5911 5911 5912 5913 5913
5898 5898 5898 5900 5901 5903 5903 5905 5907 5907 5908 5908 5908 5909 5909 5909 5909 5910 5910 5911 5912 5912 5913 5912 5912 5911 5910 5909 5907 5905 5903 5904 5906 5908 5910 5910 5911 5911 5912 5912 5912 5913 5913
5898 5900 5899 5901 5902 5904 5905 5907 5909 5909 5910 5911 5912 5912 5912 5913 5913 5913 5913 5914 5915 5915 5915 5915 5915 5914 5913 5912 5910 5909 5908 5908 5910 5910 5911 5911 5911 5913 5912 5913 5913 5913 5913
5899 5900 5900 5902 5904 5905 5907 5909 5910 5911 5912 5913 5915 5915 5915 5916 5916 5917 5917 5918 5918 5918 5918 5917 5917 5916 5916 5914 5913 5912 5911 5911 5911 5911 5911 5910 5909 5910 5911 5913 5913 5913 5913
5900 5900 5902 5903 5905 5907 5909 5911 5913 5913 5914 5916 5917 5918 5927 5919 5919 5919 5919 5920 5920 5919 5920 5920 5920 5919 5917 5917 5915 5914 5914 5912 5912 5912 5911 5909 5908 5908 5911 5913 5913 5913 5912
5901 5901 5903 5904 5907 5909 5911 5913 5914 5915 5917 5918 5919 5920 5922 5922 5923 5922 5921 5922 5921 5921 5921 5921 5922 5920 5919 5917 5917 5917 5916 5914 5913 5914 5913 5912 5910 5910 5912 5913 5913 5911 5908
5901 5902 5904 5906 5908 5910 5912 5915 5916 5917 5919 5920 5922 5922 5923 5925 5925 5925 5924 5924 5923 5924 5923 5922 5921 5921 5919 5919 5920 5919 5918 5917 5916 5915 5915 5914 5913 5912 5913 5914 5913 5911 5911
5902 5903 5905 5907 5909 5911 5914 5917 5918 5920 5921 5922 5924 5925 5926 5927 5927 5926 5926 5926 5927 5926 5924 5923 5922 5922 5921 5920 5921 5920 5919 5918 5918 5917 5916 5916 5915 5915 5915 5915 5914 5914 5914
5903 5904 5905 5907 5910 5913 5916 5918 5921 5922 5924 5925 5926 5928 5928 5929 5929 5929 5928 5929 5928 5927 5926 5924 5924 5921 5923 5922 5921 5920 5919 5919 5919 5919 5918 5917 5918 5917 5917 5917 5917 5917 5917
5903 5905 5907 5908 5910 5913 5917 5919 5922 5924 5925 5927 5928 5929 5930 5931 5931 5931 5930 5930 5929 5927 5926 5925 5924 5921 5923 5922 5921 5920 5920 5919 5919 5920 5920 5920 5919 5919 5919 5919 5919 5918 5918
5904 5905 5907 5909 5911 5914 5917 5920 5923 5926 5927 5928 5930 5931 5932 5933 5933 5933 5932 5932 5931 5929 5927 5925 5924 5924 5922 5922 5920 5920 5919 5920 5919 5919 5920 5920 5920 5921 5921 5920 5919 5919 5918
5903 5905 5908 5910 5912 5915 5918 5921 5924 5926 5928 5929 5930 5932 5933 5934 5935 5935 5934 5933 5932 5930 5928 5926 5924 5923 5922 5920 5919 5919 5920 5920 5920 5921 5920 5920 5921 5921 5921 5920 5920 5920 5918
5903 5905 5908 5910 5913 5916 5919 5922 5925 5927 5928 5930 5931 5932 5934 5935 5936 5935 5935 5934 5933 5930 5929 5928 5926 5923 5922 5920 5919 5918 5919 5920 5921 5921 5921 5920 5920 5921 5920 5921 5920 5918 5918
5902 5904 5907 5910 5912 5915 5918 5921 5924 5926 5928 5930 5932 5933 5934 5935 5936 5935 5935 5934 5933 5932 5931 5930 5927 5924 5922 5920 5919 5919 5920 5920 5920 5921 5921 5922 5921 5920 5921 5922 5920 5919 5918
5900 5902 5905 5909 5912 5914 5917 5920 5923 5926 5927 5929 5931 5932 5934 5935 5935 5935 5935 5935 5934 5933 5932 5932 5930 5927 5925 5923 5922 5922 5922 5922 5922 5922 5922 5921 5921 5920 5920 5920 5918 5918 5917
5899 5902 5904 5907 5910 5913 5916 5919 5923 5925 5926 5927 5929 5932 5934 5935 5934 5934 5936 5936 5935 5934 5933 5932 5930 5928 5928 5927 5926 5925 5925 5924 5923 5923 5922 5922 5921 5921 5919 5918 5917 5917 5917
5897 5900 5903 5906 5909 5912 5915 5918 5921 5923 5925 5928 5930 5931 5932 5934 5934 5934 5936 5937 5936 5935 5934 5933 5931 5930 5929 5929 5929 5928 5927 5926 5926 5926 5925 5924 5923 5921 5920 5919 5918 5916 5915
5895 5899 5903 5906 5909 5912 5915 5917 5919 5923 5925 5927 5928 5930 5932 5934 5935 5935 5936 5936 5936 5935 5934 5934 5934 5932 5932 5931 5930 5929 5928 5927 5927 5926 5925 5924 5923 5921 5920 5919 5917 5916 5914
5895 5898 5903 5906 5909 5911 5913 5916 5919 5921 5923 5925 5926 5929 5931 5933 5934 5935 5935 5935 5936 5935 5934 5934 5934 5934 5933 5932 5931 5929 5928 5927 5926 5925 5924 5922 5921 5920 5918 5916 5915 5914 5913